TimeCET,TemperatureF,Dew PointF,Humidity,Sea Level PressureIn,VisibilityMPH,Wind Direction,Wind SpeedMPH,Gust SpeedMPH,PrecipitationIn,Events,Conditions,WindDirDegrees,DateUTC
12:00 AM,41.0,37.4,87,30.15,5.6,Variable,2.3,-,N/A,Rain,Rain,0,2013-02-27 23:00:00
12:21 AM,41.0,39.2,93,30.15,1.2,ENE,9.2,-,N/A,Rain,Rain Showers,70,2013-02-27 23:21:00
12:30 AM,41.0,39.2,93,30.15,1.9,ENE,9.2,-,N/A,Rain,Rain Showers,70,2013-02-27 23:30:00
1:00 AM,41.0,39.2,93,30.15,6.2,North,9.2,-,N/A,,Mostly Cloudy,10,2013-02-28 00:00:00
1:30 AM,41.0,39.2,93,30.15,6.2,NNE,4.6,-,N/A,,Mostly Cloudy,20,2013-02-28 00:30:00
2:00 AM,41.0,37.4,87,30.15,6.2,North,4.6,-,N/A,,Scattered Clouds,10,2013-02-28 01:00:00
2:30 AM,41.0,37.4,87,30.15,6.2,North,5.8,-,N/A,,Scattered Clouds,350,2013-02-28 01:30:00
3:00 AM,41.0,37.4,87,30.12,6.2,North,5.8,-,N/A,,Partly Cloudy,360,2013-02-28 02:00:00
3:30 AM,39.2,37.4,93,30.12,6.2,Variable,1.2,-,N/A,,Partly Cloudy,0,2013-02-28 02:30:00
4:00 AM,39.2,39.2,100,30.12,6.2,Variable,1.2,-,N/A,,Scattered Clouds,0,2013-02-28 03:00:00
4:30 AM,39.2,39.2,100,30.12,3.7,NE,3.5,-,N/A,Rain,Light Rain,40,2013-02-28 03:30:00
5:00 AM,39.2,39.2,100,30.09,3.7,North,4.6,-,N/A,Rain,Light Rain,350,2013-02-28 04:00:00
5:30 AM,39.2,39.2,100,30.09,6.2,North,4.6,-,N/A,,Scattered Clouds,360,2013-02-28 04:30:00
6:00 AM,39.2,39.2,100,30.09,6.2,North,4.6,-,N/A,,Scattered Clouds,360,2013-02-28 05:00:00
6:30 AM,39.2,37.4,93,30.09,6.2,North,4.6,-,N/A,,Mostly Cloudy,10,2013-02-28 05:30:00
7:00 AM,40,37,84,30.11,16,North,6.9,,,,Scattered Clouds,10,2013-02-28 06:00:00
7:00 AM,39.2,37.4,93,30.09,6.2,North,6.9,-,N/A,,Scattered Clouds,10,2013-02-28 06:00:00
7:46 AM,41.0,39.2,93,30.09,6.2,North,8.1,-,N/A,,Mostly Cloudy,360,2013-02-28 06:46:00
8:00 AM,41.0,39.2,93,30.09,6.2,North,8.1,-,N/A,,Mostly Cloudy,10,2013-02-28 07:00:00
8:30 AM,41.0,39.2,93,30.12,6.2,Variable,2.3,-,N/A,,Mostly Cloudy,0,2013-02-28 07:30:00
9:00 AM,41.0,41.0,100,30.12,6.2,NNE,9.2,-,N/A,Rain,Light Rain,20,2013-02-28 08:00:00
9:30 AM,41.0,41.0,100,30.12,5.0,NNE,9.2,-,N/A,Rain,Light Rain,20,2013-02-28 08:30:00
9:35 AM,41.0,41.0,100,30.12,3.1,North,9.2,-,N/A,Rain,Rain Showers,10,2013-02-28 08:35:00
10:00 AM,42.8,41.0,93,30.12,5.0,North,9.2,-,N/A,Rain,Light Rain,10,2013-02-28 09:00:00
10:30 AM,44.6,42.8,93,30.12,5.0,NNE,6.9,-,N/A,,Mostly Cloudy,30,2013-02-28 09:30:00
11:00 AM,44.6,42.8,93,30.09,5.0,NNE,10.4,-,N/A,,Mostly Cloudy,20,2013-02-28 10:00:00
11:30 AM,46.4,42.8,87,30.09,5.0,NNE,13.8,-,N/A,,Mostly Cloudy,20,2013-02-28 10:30:00
12:30 PM,46.4,42.8,87,30.06,6.2,NNE,10.4,-,N/A,,Mostly Cloudy,20,2013-02-28 11:30:00
1:00 PM,49,44,76,30.06,6,NNE,11.5,,,Rain,Light Rain,30,2013-02-28 12:00:00
1:00 PM,46.4,42.8,87,30.06,6.2,NNE,10.4,-,N/A,,Mostly Cloudy,30,2013-02-28 12:00:00
1:11 PM,46.4,41.0,81,30.06,3.1,NE,12.7,-,N/A,Rain,Light Rain Showers,50,2013-02-28 12:11:00
1:30 PM,44.6,42.8,93,30.06,3.7,East,10.4,-,N/A,Rain,Light Rain Showers,80,2013-02-28 12:30:00
2:00 PM,46.4,41.0,81,30.04,5.6,NE,12.7,-,N/A,,Mostly Cloudy,50,2013-02-28 13:00:00
2:30 PM,48.2,42.8,82,30.04,5.6,NNE,13.8,-,N/A,,Partly Cloudy,30,2013-02-28 13:30:00
3:00 PM,46.4,41.0,81,30.04,5.6,NNE,16.1,-,N/A,,Partly Cloudy,20,2013-02-28 14:00:00
3:30 PM,46.4,41.0,81,30.04,5.6,NNE,16.1,-,N/A,,Scattered Clouds,20,2013-02-28 14:30:00
4:30 PM,46.4,42.8,87,30.01,6.2,NNE,13.8,-,N/A,,Mostly Cloudy,20,2013-02-28 15:30:00
5:00 PM,46.4,42.8,87,30.01,5.0,NNE,15.0,-,N/A,Rain,Light Rain,20,2013-02-28 16:00:00
5:08 PM,44.6,41.0,87,30.01,3.7,NNE,16.1,28.8,N/A,Rain,Rain Showers,20,2013-02-28 16:08:00
5:30 PM,44.6,41.0,87,30.01,3.7,NNE,13.8,-,N/A,Rain,Rain Showers,20,2013-02-28 16:30:00
6:00 PM,42.8,41.0,93,30.01,2.5,NNE,9.2,-,N/A,Rain,Heavy Rain Showers,20,2013-02-28 17:00:00
6:04 PM,42.8,42.8,100,30.01,3.7,North,6.9,-,N/A,Rain,Rain Showers,360,2013-02-28 17:04:00
6:30 PM,44.6,42.8,93,30.01,5.0,North,3.5,-,N/A,Rain,Light Rain,360,2013-02-28 17:30:00
7:00 PM,46,44,89,30.01,5,NNE,5.8,,,Rain,Light Rain,30,2013-02-28 18:00:00
7:00 PM,44.6,44.6,100,30.01,2.5,Variable,5.8,-,N/A,Rain,Rain Showers,0,2013-02-28 18:00:00
7:30 PM,44.6,44.6,100,30.01,3.7,NNE,6.9,-,N/A,Rain,Rain Showers,20,2013-02-28 18:30:00
7:52 PM,44.6,44.6,100,30.01,3.7,NNE,6.9,-,N/A,Rain-Thunderstorm,Rain Showers,30,2013-02-28 18:52:00
8:00 PM,44.6,44.6,100,30.01,3.7,NNE,6.9,-,N/A,Rain-Thunderstorm,Light Thunderstorms and Rain,30,2013-02-28 19:00:00
8:30 PM,44.6,42.8,93,30.01,3.7,NNE,10.4,-,N/A,,Light Drizzle,20,2013-02-28 19:30:00
9:00 PM,44.6,42.8,93,30.01,6.2,North,10.4,-,N/A,,Mostly Cloudy,10,2013-02-28 20:00:00
9:30 PM,44.6,42.8,93,30.01,6.2,NNE,9.2,-,N/A,Rain,Light Rain,20,2013-02-28 20:30:00
10:00 PM,44.6,42.8,93,30.01,3.7,East,6.9,-,N/A,Rain,Rain,90,2013-02-28 21:00:00
10:30 PM,44.6,41.0,87,30.01,3.7,NE,9.2,-,N/A,Rain,Light Rain,40,2013-02-28 21:30:00
11:00 PM,42.8,42.8,100,30.01,3.7,NNE,11.5,-,N/A,Rain,Light Rain,30,2013-02-28 22:00:00
11:30 PM,42.8,42.8,100,30.01,5.0,North,10.4,-,N/A,Rain,Light Rain,10,2013-02-28 22:30:00